[Date Prev][Date Next][Thread Prev][Thread Next] - [Date Index][Thread Index][Author Index]

2 Line ISS Keps 6-7



ISS
1 25544U 98067A   05158.01701509  .00018770  00000-0  14141-3 0  6389
2 25544 051.6455 313.0259 0004672 212.5513 249.0941 15.72551444374088
----
Via the sarex mailing list at AMSAT.ORG courtesy of AMSAT-NA.
To unsubscribe, send "unsubscribe sarex" to Majordomo@amsat.org



AMSAT Top AMSAT Home